Time,TemperatureF,DewpointF,PressureIn,WindDirection,WindDirectionDegrees,WindSpeedMPH,WindSpeedGustMPH,Humidity,HourlyPrecipIn,Conditions,Clouds,dailyrainin,SoftwareType,DateUTC
2013-02-26 06:42:00,29.0,29.0,-100.00,West,280,0.0,1.0,100,-99.99,,,-99.99,,2013-02-26 11:42:00,
2013-02-26 06:53:00,29.0,29.0,-100.00,West,270,1.0,1.0,100,-99.99,,,-99.99,,2013-02-26 11:53:00,
2013-02-26 07:02:00,29.0,29.0,-100.00,WSW,255,0.0,2.0,99,-99.99,,,-99.99,,2013-02-26 12:02:00,
2013-02-26 07:11:00,29.0,29.0,-100.00,West,260,1.0,2.0,100,-99.99,,,-99.99,,2013-02-26 12:11:00,
2013-02-26 07:22:00,30.0,30.0,-100.00,NE,35,0.0,1.0,99,-99.99,,,-99.99,,2013-02-26 12:22:00,
2013-02-26 07:32:00,30.0,30.0,-100.00,NNW,330,0.0,2.0,100,-99.99,,,-99.99,,2013-02-26 12:32:00,
2013-02-26 07:42:00,30.0,30.0,-100.00,WNW,295,0.0,1.0,100,-99.99,,,-99.99,,2013-02-26 12:42:00,
2013-02-26 07:52:00,31.0,31.0,-100.00,NNE,25,2.0,3.0,100,-99.99,,,-99.99,,2013-02-26 12:52:00,
2013-02-26 08:02:00,31.0,31.0,-100.00,North,10,2.0,3.0,100,-99.99,,,-99.99,,2013-02-26 13:02:00,
2013-02-26 08:11:00,31.0,31.0,-100.00,North,5,2.0,3.0,100,-99.99,,,-99.99,,2013-02-26 13:11:00,
2013-02-26 08:22:00,32.0,31.0,-100.00,North,10,1.0,2.0,99,-99.99,,,-99.99,,2013-02-26 13:22:00,
2013-02-26 08:32:00,32.0,32.0,-100.00,North,0,2.0,3.0,99,-99.99,,,-99.99,,2013-02-26 13:32:00,
2013-02-26 08:42:00,32.0,32.0,-100.00,North,0,2.0,3.0,100,-99.99,,,-99.99,,2013-02-26 13:42:00,
2013-02-26 08:52:00,33.0,32.0,-100.00,North,355,2.0,5.0,98,-99.99,,,-99.99,,2013-02-26 13:52:00,
2013-02-26 09:02:00,33.0,33.0,-100.00,North,0,2.0,3.0,99,-99.99,,,-99.99,,2013-02-26 14:02:00,
2013-02-26 09:11:00,33.0,33.0,-100.00,NNE,15,2.0,3.0,99,-99.99,,,-99.99,,2013-02-26 14:11:00,
2013-02-26 09:22:00,35.0,34.0,-100.00,NE,45,3.0,6.0,98,-99.99,,,-99.99,,2013-02-26 14:22:00,
2013-02-26 09:32:00,35.0,34.0,-100.00,NNE,30,2.0,6.0,96,-99.99,,,-99.99,,2013-02-26 14:32:00,
2013-02-26 09:42:00,36.0,34.0,-100.00,NE,40,2.0,6.0,93,-99.99,,,-99.99,,2013-02-26 14:42:00,
2013-02-26 09:52:00,37.0,34.0,-100.00,NE,45,3.0,6.0,91,-99.99,,,-99.99,,2013-02-26 14:52:00,
2013-02-26 10:02:00,38.0,34.0,-100.00,ENE,65,3.0,5.0,86,-99.99,,,-99.99,,2013-02-26 15:02:00,
2013-02-26 10:10:00,40.0,33.0,-100.00,East,90,5.0,6.0,77,-99.99,,,-99.99,,2013-02-26 15:10:00,
2013-02-26 10:12:00,38.0,34.0,-100.00,East,80,3.0,6.0,84,-99.99,,,-99.99,,2013-02-26 15:12:00,
2013-02-26 10:22:00,40.0,34.0,-100.00,East,80,2.0,6.0,80,-99.99,,,-99.99,,2013-02-26 15:22:00,
2013-02-26 10:32:00,40.0,34.0,-100.00,ESE,120,2.0,6.0,78,-99.99,,,-99.99,,2013-02-26 15:32:00,
2013-02-26 10:42:00,40.0,33.0,-100.00,ENE,65,2.0,5.0,77,-99.99,,,-99.99,,2013-02-26 15:42:00,
2013-02-26 10:52:00,40.0,33.0,-100.00,East,90,5.0,6.0,77,-99.99,,,-99.99,,2013-02-26 15:52:00,
2013-02-26 11:02:00,40.0,33.0,-100.00,East,90,5.0,6.0,77,-99.99,,,-99.99,,2013-02-26 16:02:00,
2013-02-26 12:20:00,41.0,32.0,-100.00,NNE,30,5.0,9.0,70,-99.99,,,-99.99,,2013-02-26 17:20:00,
2013-02-26 13:02:00,41.0,32.0,-100.00,NNE,30,5.0,9.0,70,-99.99,,,-99.99,,2013-02-26 18:02:00,
2013-02-26 13:12:00,41.0,32.0,-100.00,NNE,30,5.0,9.0,70,-99.99,,,-99.99,,2013-02-26 18:12:00,
2013-02-26 13:52:00,41.0,34.0,-100.00,East,90,3.0,8.0,74,-99.99,,,-99.99,,2013-02-26 18:52:00,
2013-02-26 16:10:00,40.0,30.0,-100.00,ESE,115,7.0,10.0,66,-99.99,,,-99.99,,2013-02-26 21:10:00,
2013-02-26 16:51:00,40.0,30.0,-100.00,ESE,115,7.0,10.0,66,-99.99,,,-99.99,,2013-02-26 21:51:00,
2013-02-26 17:01:00,40.0,30.0,-100.00,ESE,115,7.0,10.0,66,-99.99,,,-99.99,,2013-02-26 22:01:00,
2013-02-26 18:11:00,38.0,27.0,-100.00,East,100,2.0,5.0,65,-99.99,,,-99.99,,2013-02-26 23:11:00,
2013-02-26 18:21:00,38.0,27.0,-100.00,East,100,2.0,5.0,65,-99.99,,,-99.99,,2013-02-26 23:21:00,
2013-02-26 18:32:00,38.0,28.0,-100.00,East,85,2.0,5.0,67,-99.99,,,-99.99,,2013-02-26 23:32:00,
2013-02-26 18:42:00,37.0,28.0,-100.00,ESE,110,2.0,5.0,68,-99.99,,,-99.99,,2013-02-26 23:42:00,
2013-02-26 18:52:00,37.0,28.0,-100.00,ESE,120,1.0,5.0,70,-99.99,,,-99.99,,2013-02-26 23:52:00,
2013-02-26 19:02:00,37.0,28.0,-100.00,East,100,2.0,5.0,70,-99.99,,,-99.99,,2013-02-27 00:02:00,
2013-02-26 19:11:00,37.0,28.0,-100.00,East,90,2.0,5.0,71,-99.99,,,-99.99,,2013-02-27 00:11:00,
2013-02-26 19:22:00,36.0,28.0,-100.00,East,95,1.0,5.0,72,-99.99,,,-99.99,,2013-02-27 00:22:00,
2013-02-26 20:32:00,35.0,28.0,-100.00,East,85,2.0,3.0,77,-99.99,,,-99.99,,2013-02-27 01:32:00,
2013-02-26 21:24:00,35.0,28.0,-100.00,SE,125,2.0,3.0,78,-99.99,,,-99.99,,2013-02-27 02:24:00,
2013-02-26 21:32:00,35.0,28.0,-100.00,SE,125,2.0,3.0,78,-99.99,,,-99.99,,2013-02-27 02:32:00,
2013-02-26 21:42:00,34.0,28.0,-100.00,NE,50,3.0,5.0,79,-99.99,,,-99.99,,2013-02-27 02:42:00,
2013-02-26 21:52:00,34.0,28.0,-100.00,NE,55,2.0,5.0,80,-99.99,,,-99.99,,2013-02-27 02:52:00,
2013-02-26 22:02:00,34.0,29.0,-100.00,NE,40,3.0,5.0,82,-99.99,,,-99.99,,2013-02-27 03:02:00,
2013-02-26 22:11:00,35.0,29.0,-100.00,ENE,60,2.0,5.0,81,-99.99,,,-99.99,,2013-02-27 03:11:00,
2013-02-26 22:22:00,36.0,30.0,-100.00,ESE,115,2.0,6.0,79,-99.99,,,-99.99,,2013-02-27 03:22:00,
2013-02-26 22:32:00,37.0,30.0,-100.00,East,85,5.0,8.0,75,-99.99,,,-99.99,,2013-02-27 03:32:00,
2013-02-26 22:42:00,37.0,30.0,-100.00,East,85,5.0,9.0,74,-99.99,,,-99.99,,2013-02-27 03:42:00,
2013-02-26 22:52:00,37.0,30.0,-100.00,East,80,3.0,7.0,73,-99.99,,,-99.99,,2013-02-27 03:52:00,
2013-02-26 23:02:00,37.0,30.0,-100.00,East,80,3.0,7.0,73,-99.99,,,-99.99,,2013-02-27 04:02:00,